Change the Weather History Date:

Saturday, March 5, 2011

  Actual Average Record
Temperature  
Mean Temperature 71 °F 69 °F  
Max Temperature 83 °F 79 °F 90 °F (1961)
Min Temperature 59 °F 58 °F 36 °F (1916)
Degree Days  
Heating Degree Days 0 1  
Month to date heating degree days 0 5  
Since 1 July heating degree days 420 265  
Cooling Degree Days 6 5  
Month to date cooling degree days 30 25  
Year to date cooling degree days 212 210  
Growing Degree Days 20 (Base 50)    
Moisture  
Dew Point 59 °F    
Average Humidity 73    
Maximum Humidity 90    
Minimum Humidity 45    
Precipitation  
Precipitation T in 0.09 in 1.20 in (1975)
Month to date precipitation 0.02 0.42  
Year to date precipitation 3.43 4.51  
Sea Level Pressure  
Sea Level Pressure 30.10 in    
Wind  
Wind Speed 6 mph (East)    
Max Wind Speed 20 mph    
Max Gust Speed 25 mph    
Visibility 10 miles    
Events      
T = Trace of Precipitation, MM = Missing Value Source: NWS Daily Summary

Daily Weather History Graph

Daily Weather History Graph

Search for Another Location

Airport or City:

Trip Planner

Search our weather history database for the weather conditions in past years. The results will help you decide how hot, cold, wet, or windy it might be!

Date:

Astronomy

Mar. 05, 2011 Rise Set
Actual Time 6:47 AM EST 6:30 PM EST
Civil Twilight 6:24 AM EST 6:54 PM EST
Nautical Twilight 5:57 AM EST 7:20 PM EST
Astronomical Twilight 5:30 AM EST 7:47 PM EST
Moon 6:54 AM EST (3/5) 7:23 PM EST (3/5)
Length of Visible Light 12h 29m
Length of Day
11h 43m
New Moon, 1% of the Moon is Illuminated
Mar 5
New Moon
Mar 12
First Quarter
Mar 19
Full
Mar 26
Last Quarter
Apr 3
New

Hourly Weather History & Observations

Time (EST) Temp. Heat Index Dew Point Humidity Pressure Visibility Wind Dir Wind Speed Gust Speed Precip Events Conditions
12:53 AM 62.1 °F - 55.9 °F 80% 30.17 in 10.0 mi ENE 4.6 mph - N/A   Clear
1:53 AM 60.1 °F - 55.9 °F 86% 30.15 in 10.0 mi ENE 4.6 mph - N/A   Scattered Clouds
2:53 AM 60.1 °F - 55.9 °F 86% 30.14 in 10.0 mi ENE 4.6 mph - N/A   Overcast
3:53 AM 60.1 °F - 55.9 °F 86% 30.13 in 10.0 mi ENE 4.6 mph - N/A   Scattered Clouds
4:53 AM 59.0 °F - 55.9 °F 90% 30.13 in 10.0 mi East 4.6 mph - N/A   Mostly Cloudy
5:53 AM 61.0 °F - 57.0 °F 87% 30.14 in 10.0 mi ENE 4.6 mph - N/A   Overcast
6:53 AM 61.0 °F - 57.0 °F 87% 30.13 in 10.0 mi East 3.5 mph - 0.00 in   Overcast
7:53 AM 64.9 °F - 57.9 °F 78% 30.15 in 10.0 mi East 5.8 mph - N/A   Overcast
8:53 AM 69.1 °F - 59.0 °F 70% 30.16 in 10.0 mi East 9.2 mph - N/A   Overcast
10:53 AM 77.0 °F - 60.1 °F 56% 30.13 in 10.0 mi ESE 17.3 mph 24.2 mph N/A   Mostly Cloudy
11:53 AM 79.0 °F - 59.0 °F 50% 30.12 in 10.0 mi SE 12.7 mph 20.7 mph N/A   Partly Cloudy
12:53 PM 80.1 °F 80.6 °F 57.9 °F 47% 30.09 in 10.0 mi SE 8.1 mph 17.3 mph N/A   Scattered Clouds
1:53 PM 81.0 °F 81.0 °F 57.0 °F 44% 30.06 in 10.0 mi SE 10.4 mph - N/A   Mostly Cloudy
3:53 PM 79.0 °F - 59.0 °F 50% 30.03 in 10.0 mi SW 5.8 mph - N/A   Scattered Clouds
4:53 PM 75.9 °F - 59.0 °F 56% 30.02 in 10.0 mi WSW 11.5 mph - N/A   Mostly Cloudy
5:53 PM 73.0 °F - 61.0 °F 66% 30.02 in 10.0 mi SSW 8.1 mph - N/A   Scattered Clouds
7:53 PM 71.1 °F - 63.0 °F 75% 30.04 in 10.0 mi Calm Calm - N/A   Overcast
8:53 PM 70.0 °F - 63.0 °F 78% 30.06 in 10.0 mi Calm Calm - 0.00 in   Overcast
9:53 PM 68.0 °F - 62.1 °F 81% 30.06 in 10.0 mi Calm Calm - N/A   Partly Cloudy
10:53 PM 66.0 °F - 61.0 °F 84% 30.06 in 10.0 mi ENE 3.5 mph - N/A   Clear
11:53 PM 64.0 °F - 61.0 °F 90% 30.05 in 10.0 mi Calm Calm - N/A   Scattered Clouds